Content
SEND FEEDBACK

Daily
Averages
Monthly
Summary
Canada

MONTREAL, QUEBEC


Home > North America > Canada > Quebec
Elevation: 118 feet     Latitude: 45 28N     Longitude: 073 45W

WEATHER
 
SELECT A DAY
Number of Records: 198,744;   Date Range: 1/1/95 - 9/15/14
 
SHARE

PRINT THIS DATA

[ ← Previous Day ]
WEATHER ALMANAC - MAY 1, 2013
[ Next Day → ]
[ °C ]   °F
Weather ElementAverageHighLow
Temperature66.4 °F78.8 °F (4:00 pm)50 °F (5:00 am)
Dewpoint45.6 °F51.8 °F (12:00 pm)37.4 °F (7:00 pm)
Humidity50.1 %87 % (5:00 am)17 % (8:00 pm)
Barometer30.36 in30.42 in (9:00 am)30.27 in (1:00 am)
Wind Speed3.6 mph11.5 mph (3:00 pm)
Weather ElementAverage
Visibility23.7 mi
Wind DirectionESE (126.7 °)

Weather ElementTotal
Precipitation---
Heating Degree Days0.6 (Base 65)
Growing Degree Days14.4 (Base 50)
Averaged from 27 records on May 1, 2013
WEATHER CONDITIONS BREAKOUT
WIND DIRECTION BREAKOUT
WEATHER BY HOUR - MAY 1, 2013
[ °C ]   °F
Local TimeTemperatureDewpointHumidityBarometerVisibilityWind DirectionWind SpeedGust SpeedPrecipitationEventsConditions
1:00 AM59.0 °F46.4 °F63 %30.27 in15.0 miWest (280°)2.3 mphScattered Clouds
2:00 AM57.0 °F46.0 °F58 %30.29 in15.0 miSSE (150°)2.3 mphScattered Clouds
2:00 AM57.2 °F46.4 °F67 %30.29 in15.0 miSSE (160°)2.3 mphScattered Clouds
3:00 AM55.4 °F46.4 °F72 %30.30 in15.0 miCalmScattered Clouds
4:00 AM53.6 °F46.4 °F77 %30.33 in15.0 miSE (130°)3.5 mphPartly Cloudy
5:00 AM50.0 °F46.4 °F87 %30.35 in15.0 miSSW (210°)4.6 mphPartly Cloudy
6:00 AM50.0 °F46.4 °F87 %30.36 in30.0 miVariable2.3 mphPartly Cloudy
7:00 AM55.4 °F48.2 °F77 %30.38 in30.0 miESE (120°)3.5 mphPartly Cloudy
8:00 AM58.0 °F50.0 °F67 %30.41 in28.0 miNNW (330°)1.2 mphClear
8:00 AM57.2 °F50.0 °F77 %30.41 in30.0 miVariable2.3 mphPartly Cloudy
9:00 AM62.6 °F50.0 °F63 %30.42 in30.0 miVariable2.3 mphClear
10:00 AM66.2 °F50.0 °F56 %30.41 in30.0 miCalmClear
11:00 AM69.8 °F50.0 °F49 %30.41 in15.0 miSW (220°)4.6 mphPartly Cloudy
12:00 PM71.6 °F51.8 °F50 %30.39 in15.0 miSouth (170°)4.6 mphPartly Cloudy
1:00 PM73.4 °F48.2 °F41 %30.38 in30.0 miVariable2.3 mphPartly Cloudy
2:00 PM75.0 °F48.0 °F27 %30.36 in28.0 miSE (140°)5.8 mphScattered Clouds
2:00 PM75.2 °F48.2 °F38 %30.36 in30.0 miSE (140°)5.8 mphMostly Cloudy
3:00 PM77.0 °F44.6 °F32 %30.35 in30.0 miSSE (160°)11.5 mphMostly Cloudy
4:00 PM78.8 °F42.8 °F28 %30.34 in30.0 miVariable5.8 mphMostly Cloudy
5:00 PM77.0 °F42.8 °F29 %30.35 in30.0 miSSW (200°)3.5 mphMostly Cloudy
6:00 PM77.0 °F39.2 °F26 %30.34 in30.0 miEast (100°)5.8 mphMostly Cloudy
7:00 PM77.0 °F37.4 °F24 %30.35 in30.0 miESE (110°)2.3 mphScattered Clouds
8:00 PM75.0 °F39.0 °F17 %30.35 in28.0 miESE (120°)4.6 mphPartly Cloudy
8:00 PM75.2 °F39.2 °F27 %30.34 in30.0 miESE (120°)4.6 mphScattered Clouds
9:00 PM73.4 °F41.0 °F31 %30.35 in15.0 miEast (90°)3.5 mphScattered Clouds
10:00 PM69.8 °F42.8 °F38 %30.36 in15.0 miNorth (350°)2.3 mphScattered Clouds
11:00 PM66.2 °F44.6 °F46 %30.35 in15.0 miESE (120°)2.3 mphPartly Cloudy
Hourly data recorded from CYUL, located miles away from Montreal, Quebec







STORIES FROM OUR PARTNERS